| time (UTC) | temp F | wind direction | speed knots | gust knots | rain 1hr in | rain 24hr in | rain mn in | humidity % | barometer mb |
| 20260505041511 | 59 | 190 | 0.0 | 0.0 | 0.00 | 0.00 | 0.00 | 55 | |
| 20260505041010 | 59 | 190 | 1.7 | 1.7 | 0.00 | 0.00 | 0.00 | 54 | |
| 20260505035010 | 61 | 79 | 0.0 | 0.0 | 0.00 | 0.00 | 0.00 | 54 | |
| 20260505034509 | 61 | 79 | 0.0 | 1.7 | 0.00 | 0.00 | 0.00 | 54 | |
| 20260505034010 | 61 | 236 | 0.0 | 1.7 | 0.00 | 0.00 | 0.00 | 54 | |
| 20260505033511 | 59 | 236 | 0.0 | 0.0 | 0.00 | 0.00 | 0.00 | 54 | |
| 20260505032510 | 61 | 16 | 1.7 | 1.7 | 0.00 | 0.00 | 0.00 | 54 | |
| 20260505032011 | 61 | 16 | 0.0 | 1.7 | 0.00 | 0.00 | 0.00 | 54 | |
| 20260505031511 | 61 | 15 | 1.7 | 1.7 | 0.00 | 0.00 | 0.00 | 54 | |
| 20260505031010 | 61 | 105 | 0.0 | 1.7 | 0.00 | 0.00 | 0.00 | 55 | |
| 20260505030010 | 59 | 105 | 0.0 | 0.0 | 0.00 | 0.00 | 0.00 | 55 | |
| 20260505025509 | 61 | 88 | 1.7 | 1.7 | 0.00 | 0.00 | 0.00 | 54 | |
| 20260505025011 | 61 | 93 | 3.5 | 3.5 | 0.00 | 0.00 | 0.00 | 54 | |
| 20260505024510 | 61 | 87 | 3.5 | 3.5 | 0.00 | 0.00 | 0.00 | 54 | |
| 20260505024010 | 61 | 73 | 6.1 | 6.1 | 0.00 | 0.00 | 0.00 | 54 | |
| 20260505023510 | 61 | 63 | 6.1 | 7.8 | 0.00 | 0.00 | 0.00 | 54 | |
| 20260505023011 | 61 | 54 | 7.8 | 7.8 | 0.00 | 0.00 | 0.00 | 54 | |
| 20260505022509 | 61 | 50 | 7.8 | 7.8 | 0.00 | 0.00 | 0.00 | 54 | |
| 20260505022012 | 61 | 45 | 6.1 | 7.8 | 0.00 | 0.00 | 0.00 | 55 | |
| 20260505021510 | 61 | 42 | 6.1 | 7.8 | 0.00 | 0.00 | 0.00 | 56 | |
| 20260505021011 | 61 | 24 | 6.1 | 7.8 | 0.00 | 0.00 | 0.00 | 56 | |
| 20260505020510 | 59 | 13 | 6.1 | 7.8 | 0.00 | 0.00 | 0.00 | 57 | |
| 20260505020013 | 59 | 4 | 7.8 | 9.6 | 0.00 | 0.00 | 0.00 | 58 | |
| 20260505015510 | 59 | 1 | 9.6 | 9.6 | 0.00 | 0.00 | 0.00 | 58 | |
| 20260505015011 | 59 | 4 | 7.8 | 9.6 | 0.00 | 0.00 | 0.00 | 58 | |
| 20260505014510 | 59 | 10 | 9.6 | 9.6 | 0.00 | 0.00 | 0.00 | 58 | |
| 20260505014010 | 59 | 347 | 7.8 | 9.6 | 0.00 | 0.00 | 0.00 | 58 | |
| 20260505013509 | 59 | 341 | 7.8 | 7.8 | 0.00 | 0.00 | 0.00 | 58 | |
| 20260505013010 | 59 | 337 | 6.1 | 7.8 | 0.00 | 0.00 | 0.00 | 58 | |
| 20260505012511 | 59 | 319 | 3.5 | 6.1 | 0.00 | 0.00 | 0.00 | 58 | |
| 20260505012014 | 59 | 338 | 7.8 | 7.8 | 0.00 | 0.00 | 0.00 | 59 | |
| 20260505011511 | 59 | 340 | 7.8 | 7.8 | 0.00 | 0.00 | 0.00 | 59 | |
| 20260505011010 | 59 | 353 | 7.8 | 7.8 | 0.00 | 0.00 | 0.00 | 58 | |
| 20260505010510 | 59 | 8 | 7.8 | 9.6 | 0.00 | 0.00 | 0.00 | 58 | |
| 20260505010010 | 59 | 1 | 7.8 | 7.8 | 0.00 | 0.00 | 0.00 | 59 | |
| 20260505005511 | 59 | 1 | 7.8 | 9.6 | 0.00 | 0.00 | 0.00 | 59 | |
| 20260505005011 | 59 | 39 | 7.8 | 9.6 | 0.00 | 0.00 | 0.00 | 59 | |
| 20260505004511 | 59 | 24 | 6.1 | 7.8 | 0.00 | 0.00 | 0.00 | 58 | |
| 20260505004010 | 59 | 6 | 6.1 | 7.8 | 0.00 | 0.00 | 0.00 | 58 | |
| 20260505003510 | 59 | 22 | 3.5 | 6.1 | 0.00 | 0.00 | 0.00 | 57 | |
| 20260505003010 | 59 | 40 | 6.1 | 6.1 | 0.00 | 0.00 | 0.00 | 57 | |
| 20260505002510 | 59 | 37 | 3.5 | 6.1 | 0.00 | 0.00 | 0.00 | 58 | |
| 20260505002018 | 59 | 52 | 6.1 | 7.8 | 0.00 | 0.00 | 0.00 | 58 | |
| 20260505001511 | 59 | 47 | 3.5 | 6.1 | 0.00 | 0.00 | 0.00 | 59 | |
| 20260505001011 | 59 | 77 | 7.8 | 9.6 | 0.00 | 0.00 | 0.00 | 59 | |
| 20260505000511 | 59 | 80 | 7.8 | 7.8 | 0.00 | 0.00 | 0.00 | 59 | |
| 20260505000011 | 59 | 79 | 6.1 | 7.8 | 0.00 | 0.00 | 0.00 | 59 | |
| 20260504235510 | 59 | 92 | 7.8 | 9.6 | 0.00 | 0.00 | 0.00 | 59 | |
| 20260504235017 | 59 | 100 | 9.6 | 9.6 | 0.00 | 0.00 | 0.00 | 59 | |
| 20260504234510 | 59 | 107 | 7.8 | 9.6 | 0.00 | 0.00 | 0.00 | 59 | |
| 20260504234009 | 59 | 114 | 9.6 | 9.6 | 0.00 | 0.00 | 0.00 | 60 | |
| 20260504233511 | 59 | 116 | 9.6 | 9.6 | 0.00 | 0.00 | 0.00 | 59 | |
| 20260504233010 | 59 | 116 | 9.6 | 9.6 | 0.00 | 0.00 | 0.00 | 58 | |
| 20260504232510 | 59 | 107 | 7.8 | 7.8 | 0.00 | 0.00 | 0.00 | 57 | |
| 20260504232013 | 59 | 110 | 7.8 | 9.6 | 0.00 | 0.00 | 0.00 | 57 | |
| 20260504231517 | 59 | 115 | 7.8 | 9.6 | 0.00 | 0.00 | 0.00 | 57 | |
| 20260504231010 | 59 | 120 | 7.8 | 7.8 | 0.00 | 0.00 | 0.00 | 54 | |
| 20260504230510 | 61 | 121 | 6.1 | 7.8 | 0.00 | 0.00 | 0.00 | 52 | |
| 20260504230010 | 61 | 118 | 3.5 | 3.5 | 0.00 | 0.00 | 0.00 | 51 | |
| 20260504225510 | 63 | 72 | 7.8 | 9.6 | 0.00 | 0.00 | 0.00 | 50 | |
| 20260504225010 | 63 | 54 | 6.1 | 7.8 | 0.00 | 0.00 | 0.00 | 50 | |
| 20260504224511 | 63 | 30 | 7.8 | 7.8 | 0.00 | 0.00 | 0.00 | 51 | |
| 20260504224010 | 63 | 40 | 6.1 | 7.8 | 0.00 | 0.00 | 0.00 | 51 | |
| 20260504223515 | 63 | 51 | 6.1 | 6.1 | 0.00 | 0.00 | 0.00 | 51 | |
| 20260504223010 | 63 | 60 | 6.1 | 7.8 | 0.00 | 0.00 | 0.00 | 52 | |
| 20260504222509 | 63 | 75 | 3.5 | 6.1 | 0.00 | 0.00 | 0.00 | 52 | |
| 20260504222013 | 63 | 84 | 6.1 | 6.1 | 0.00 | 0.00 | 0.00 | 51 | |
| 20260504221511 | 63 | 69 | 3.5 | 6.1 | 0.00 | 0.00 | 0.00 | 51 | |
| 20260504221010 | 63 | 48 | 3.5 | 6.1 | 0.00 | 0.00 | 0.00 | 51 | |
| 20260504220511 | 63 | 49 | 6.1 | 6.1 | 0.00 | 0.00 | 0.00 | 51 | |
| 20260504220011 | 63 | 53 | 6.1 | 6.1 | 0.00 | 0.00 | 0.00 | 51 | |
| 20260504215510 | 63 | 44 | 6.1 | 6.1 | 0.00 | 0.00 | 0.00 | 51 | |
| 20260504215011 | 63 | 57 | 6.1 | 6.1 | 0.00 | 0.00 | 0.00 | 51 | |
| 20260504214510 | 63 | 53 | 6.1 | 6.1 | 0.00 | 0.00 | 0.00 | 51 | |
| 20260504214010 | 63 | 47 | 6.1 | 7.8 | 0.00 | 0.00 | 0.00 | 50 | |
| 20260504213510 | 63 | 32 | 7.8 | 7.8 | 0.00 | 0.00 | 0.00 | 51 | |
| 20260504213011 | 63 | 25 | 6.1 | 7.8 | 0.00 | 0.00 | 0.00 | 51 | |
| 20260504212511 | 63 | 15 | 6.1 | 6.1 | 0.00 | 0.00 | 0.00 | 51 | |
| 20260504212012 | 63 | 18 | 6.1 | 6.1 | 0.00 | 0.00 | 0.00 | 51 | |
| 20260504211510 | 63 | 27 | 6.1 | 6.1 | 0.00 | 0.00 | 0.00 | 51 | |
| 20260504211010 | 63 | 46 | 6.1 | 7.8 | 0.00 | 0.00 | 0.00 | 51 | |
| 20260504210511 | 63 | 47 | 3.5 | 3.5 | 0.00 | 0.00 | 0.00 | 51 | |
| 20260504210011 | 63 | 50 | 3.5 | 6.1 | 0.00 | 0.00 | 0.00 | 51 | |
| 20260504205510 | 63 | 56 | 6.1 | 6.1 | 0.00 | 0.00 | 0.00 | 51 | |
| 20260504205010 | 63 | 66 | 3.5 | 3.5 | 0.00 | 0.00 | 0.00 | 51 | |
| 20260504204510 | 63 | 48 | 6.1 | 6.1 | 0.00 | 0.00 | 0.00 | 50 | |
| 20260504204010 | 63 | 42 | 7.8 | 7.8 | 0.00 | 0.00 | 0.00 | 50 | |
| 20260504203510 | 64 | 29 | 7.8 | 7.8 | 0.00 | 0.00 | 0.00 | 49 | |
| 20260504203011 | 64 | 30 | 7.8 | 9.6 | 0.00 | 0.00 | 0.00 | 49 | |
| 20260504202510 | 64 | 28 | 7.8 | 9.6 | 0.00 | 0.00 | 0.00 | 50 | |
| 20260504202012 | 64 | 21 | 7.8 | 9.6 | 0.00 | 0.00 | 0.00 | 50 | |
| 20260504201511 | 64 | 19 | 7.8 | 7.8 | 0.00 | 0.00 | 0.00 | 50 | |
| 20260504201010 | 64 | 17 | 7.8 | 7.8 | 0.00 | 0.00 | 0.00 | 50 | |
| 20260504200511 | 64 | 26 | 7.8 | 9.6 | 0.00 | 0.00 | 0.00 | 50 | |
| 20260504200010 | 63 | 26 | 9.6 | 11.3 | 0.00 | 0.00 | 0.00 | 50 | |
| 20260504195511 | 63 | 23 | 9.6 | 9.6 | 0.00 | 0.00 | 0.00 | 50 | |
| 20260504195011 | 63 | 24 | 9.6 | 11.3 | 0.00 | 0.00 | 0.00 | 50 | |
| 20260504194511 | 63 | 19 | 9.6 | 11.3 | 0.00 | 0.00 | 0.00 | 50 | |
| 20260504194011 | 64 | 25 | 9.6 | 11.3 | 0.00 | 0.00 | 0.00 | 50 | |
| 20260504193511 | 64 | 32 | 11.3 | 11.3 | 0.00 | 0.00 | 0.00 | 49 | |
| 20260504193010 | 64 | 34 | 11.3 | 11.3 | 0.00 | 0.00 | 0.00 | 49 | |
| 20260504192510 | 64 | 31 | 11.3 | 11.3 | 0.00 | 0.00 | 0.00 | 49 | |
| 20260504192014 | 64 | 27 | 11.3 | 11.3 | 0.00 | 0.00 | 0.00 | 49 | |
| 20260504191510 | 64 | 28 | 11.3 | 11.3 | 0.00 | 0.00 | 0.00 | 48 | |
| 20260504191010 | 64 | 26 | 9.6 | 11.3 | 0.00 | 0.00 | 0.00 | 48 | |
| 20260504190510 | 64 | 25 | 9.6 | 9.6 | 0.00 | 0.00 | 0.00 | 47 | |
| 20260504190011 | 64 | 28 | 9.6 | 11.3 | 0.00 | 0.00 | 0.00 | 46 | |
| 20260504185510 | 64 | 41 | 7.8 | 7.8 | 0.00 | 0.00 | 0.00 | 45 | |
| 20260504185011 | 64 | 33 | 7.8 | 9.6 | 0.00 | 0.00 | 0.00 | 44 | |
| 20260504184511 | 66 | 36 | 3.5 | 6.1 | 0.00 | 0.00 | 0.00 | 43 | |
| 20260504184010 | 66 | 71 | 6.1 | 6.1 | 0.00 | 0.00 | 0.00 | 42 | |
| 20260504183510 | 66 | 80 | 6.1 | 7.8 | 0.00 | 0.00 | 0.00 | 42 | |
| 20260504183010 | 66 | 86 | 7.8 | 7.8 | 0.00 | 0.00 | 0.00 | 42 | |
| 20260504182510 | 66 | 82 | 7.8 | 7.8 | 0.00 | 0.00 | 0.00 | 43 | |
| 20260504182015 | 66 | 67 | 7.8 | 9.6 | 0.00 | 0.00 | 0.00 | 43 | |
| 20260504181510 | 66 | 34 | 6.1 | 7.8 | 0.00 | 0.00 | 0.00 | 44 | |
| 20260504181011 | 66 | 31 | 6.1 | 6.1 | 0.00 | 0.00 | 0.00 | 44 | |
| 20260504180515 | 66 | 26 | 7.8 | 7.8 | 0.00 | 0.00 | 0.00 | 44 | |
| 20260504180011 | 66 | 55 | 1.7 | 3.5 | 0.00 | 0.00 | 0.00 | 42 | |
| 20260504175510 | 66 | 100 | 7.8 | 9.6 | 0.00 | 0.00 | 0.00 | 42 | |
| 20260504175010 | 66 | 101 | 7.8 | 9.6 | 0.00 | 0.00 | 0.00 | 42 | |
| 20260504174511 | 66 | 98 | 7.8 | 7.8 | 0.00 | 0.00 | 0.00 | 42 | |
| 20260504174010 | 66 | 98 | 7.8 | 9.6 | 0.00 | 0.00 | 0.00 | 42 | |
| 20260504173511 | 66 | 97 | 7.8 | 9.6 | 0.00 | 0.00 | 0.00 | 43 | |
| 20260504173010 | 66 | 102 | 7.8 | 7.8 | 0.00 | 0.00 | 0.00 | 43 | |
| 20260504172511 | 68 | 104 | 7.8 | 9.6 | 0.00 | 0.00 | 0.00 | 43 | |
| 20260504172015 | 68 | 102 | 7.8 | 9.6 | 0.00 | 0.00 | 0.00 | 42 | |
| 20260504171511 | 68 | 104 | 7.8 | 7.8 | 0.00 | 0.00 | 0.00 | 42 | |
| 20260504171010 | 68 | 103 | 7.8 | 7.8 | 0.00 | 0.00 | 0.00 | 41 | |
| 20260504170511 | 68 | 99 | 6.1 | 7.8 | 0.00 | 0.00 | 0.00 | 40 | |
| 20260504151010 | 72 | 215 | 1.7 | 1.7 | 0.00 | 0.00 | 0.00 | 34 | |
| 20260504150510 | 72 | 171 | 1.7 | 3.5 | 0.00 | 0.00 | 0.00 | 34 | |
| 20260504141010 | 73 | 251 | 1.7 | 3.5 | 0.00 | 0.00 | 0.00 | 35 | |
| 20260504140511 | 72 | 216 | 1.7 | 1.7 | 0.00 | 0.00 | 0.00 | 35 | |
| 20260504130511 | 72 | 109 | 3.5 | 6.1 | 0.00 | 0.00 | 0.00 | 35 | |
| 20260504110510 | 70 | 182 | 3.5 | 6.1 | 0.00 | 0.00 | 0.00 | 38 | |
| 20260504100511 | 66 | 267 | 0.0 | 1.7 | 0.00 | 0.00 | 0.00 | 43 | |
| 20260504081510 | 59 | 312 | 3.5 | 6.1 | 0.00 | 0.00 | 0.00 | 50 | |
| 20260504081011 | 59 | 312 | 3.5 | 6.1 | 0.00 | 0.00 | 0.00 | 51 | |
| 20260504080518 | 59 | 312 | 6.1 | 6.1 | 0.00 | 0.00 | 0.00 | 51 | |
| 20260504050511 | 55 | 103 | 7.8 | 9.6 | 0.00 | 0.00 | 0.00 | 50 | |
| 20260504050012 | 55 | 89 | 6.1 | 6.1 | 0.00 | 0.00 | 0.00 | 51 | |
| 20260504045510 | 55 | 78 | 6.1 | 6.1 | 0.00 | 0.00 | 0.00 | 51 |